EW2633 Weather Reports


time (UTC)temp
C
wind
direction
speed
KPH
gust
KPH
rain 1hr
cm
rain 24hr
cm
rain mn
cm
humidity
%
barometer
mb
20260509002506 19 0 0.0 1.6 0.00 0.00 0.00 49 1009.6
20260509001507 19 0 0.0 8.0 0.00 0.00 0.00 48 1009.5
20260509001006 19 171 1.6 8.0 0.00 0.00 0.00 49 1009.6
20260509000507 19 0 0.0 6.4 0.00 0.00 0.00 48 1009.6
20260509000007 19 0 0.0 6.4 0.00 0.00 0.00 49 1009.6
20260508235507 20 184 1.6 8.0 0.00 0.00 0.00 48 1009.7
20260508235005 20 0 0.0 8.0 0.00 0.00 0.00 46 1009.7
20260508234507 20 0 0.0 8.0 0.00 0.00 0.00 47 1009.7
20260508234006 20 0 0.0 1.6 0.00 0.00 0.00 46 1009.7
20260508233506 20 0 0.0 0.0 0.00 0.00 0.00 46 1009.6
20260508233006 20 0 0.0 0.0 0.00 0.00 0.00 46 1009.6
20260508232506 20 0 0.0 0.0 0.00 0.00 0.00 46 1009.6
20260508232006 20 0 0.0 0.0 0.00 0.00 0.00 46 1009.7
20260508231506 20 0 0.0 0.0 0.00 0.00 0.00 47 1009.6
20260508231006 20 0 0.0 1.6 0.00 0.00 0.00 47 1009.6
20260508230506 20 0 0.0 1.6 0.00 0.00 0.00 47 1009.7
20260508230006 20 0 0.0 11.3 0.00 0.00 0.00 46 1009.7
20260508225505 20 0 0.0 11.3 0.00 0.00 0.00 48 1009.6
20260508225006 20 0 0.0 3.2 0.00 0.00 0.00 47 1009.5
20260508224506 20 0 0.0 0.0 0.00 0.00 0.00 45 1009.6
20260508223506 20 0 0.0 8.0 0.00 0.00 0.00 44 1009.5
20260508223006 20 0 0.0 3.2 0.00 0.00 0.00 44 1009.4
20260508222506 20 0 0.0 9.7 0.00 0.00 0.00 43 1009.4
20260508222006 21 0 0.0 9.7 0.00 0.00 0.00 44 1009.6
20260508221506 21 0 0.0 9.7 0.00 0.00 0.00 43 1009.5
20260508221006 21 0 0.0 16.1 0.00 0.00 0.00 42 1009.4
20260508220505 21 0 0.0 16.1 0.00 0.00 0.00 43 1009.3
20260508220005 21 0 0.0 3.2 0.00 0.00 0.00 42 1009.3
20260508215505 21 0 0.0 8.0 0.00 0.00 0.00 43 1009.3
20260508215006 21 0 0.0 16.1 0.00 0.00 0.00 42 1009.4
20260508214006 21 196 1.6 12.9 0.00 0.00 0.00 41 1009.5
20260508213505 21 201 1.6 12.9 0.00 0.00 0.00 40 1009.5
20260508213006 21 189 1.6 20.9 0.00 0.00 0.00 44 1009.5
20260508212505 21 176 1.6 20.9 0.00 0.00 0.00 41 1009.5
20260508212006 21 185 1.6 17.7 0.00 0.00 0.00 41 1009.5
20260508211506 21 178 3.2 17.7 0.00 0.00 0.00 41 1009.6
20260508211005 21 172 3.2 11.3 0.00 0.00 0.00 41 1009.6
20260508210506 21 174 3.2 16.1 0.00 0.00 0.00 41 1009.8
20260508210006 21 179 3.2 19.3 0.00 0.00 0.00 40 1010.0
20260508205505 21 188 1.6 19.3 0.00 0.00 0.00 41 1010.0
20260508204506 21 200 1.6 12.9 0.00 0.00 0.00 41 1010.1
20260508204006 21 0 0.0 9.7 0.00 0.00 0.00 41 1010.1
20260508203505 21 0 0.0 6.4 0.00 0.00 0.00 42 1010.3
20260508203006 21 0 0.0 8.0 0.00 0.00 0.00 43 1010.5
20260508202505 21 0 0.0 8.0 0.00 0.00 0.00 41 1010.5
20260508201506 21 0 0.0 8.0 0.00 0.00 0.00 40 1010.5
20260508201006 21 0 0.0 11.3 0.00 0.00 0.00 42 1010.7
20260508200506 21 193 1.6 11.3 0.00 0.00 0.00 40 1010.8
20260508200006 21 189 3.2 11.3 0.00 0.00 0.00 39 1010.8
20260508195506 21 186 3.2 25.7 0.00 0.00 0.00 39 1010.9
20260508195006 21 189 3.2 25.7 0.00 0.00 0.00 38 1011.0
20260508194506 21 175 1.6 11.3 0.00 0.00 0.00 41 1010.9
20260508194006 21 191 3.2 17.7 0.00 0.00 0.00 36 1011.0
20260508193506 21 205 4.8 19.3 0.00 0.00 0.00 37 1011.0
20260508193006 21 204 4.8 19.3 0.00 0.00 0.00 36 1011.2
20260508192506 21 190 3.2 12.9 0.00 0.00 0.00 38 1011.2
20260508192005 22 185 3.2 25.7 0.00 0.00 0.00 36 1011.2
20260508191506 21 191 3.2 25.7 0.00 0.00 0.00 38 1011.2
20260508191006 21 225 3.2 12.9 0.00 0.00 0.00 40 1011.3
20260508190505 21 204 4.8 16.1 0.00 0.00 0.00 37 1011.3
20260508190006 21 187 3.2 16.1 0.00 0.00 0.00 40 1011.3
20260508185506 21 197 1.6 19.3 0.00 0.00 0.00 38 1011.5
20260508185005 21 188 1.6 19.3 0.00 0.00 0.00 40 1011.4
20260508184506 21 184 1.6 12.9 0.00 0.00 0.00 39 1011.4
20260508184006 21 201 1.6 17.7 0.00 0.00 0.00 38 1011.5
20260508183505 21 207 1.6 17.7 0.00 0.00 0.00 39 1011.8
20260508183006 21 0 0.0 16.1 0.00 0.00 0.00 41 1011.9
20260508182505 21 0 0.0 9.7 0.00 0.00 0.00 40 1011.9
20260508182005 21 0 0.0 4.8 0.00 0.00 0.00 40 1012.1
20260508181505 21 199 1.6 16.1 0.00 0.00 0.00 40 1012.1
20260508181005 21 188 4.8 16.1 0.00 0.00 0.00 39 1012.2
20260508180505 21 174 3.2 16.1 0.00 0.00 0.00 40 1012.3
20260508175505 21 184 3.2 17.7 0.00 0.00 0.00 41 1012.5
20260508174005 20 182 4.8 19.3 0.00 0.00 0.00 40 1012.7
20260508173505 20 186 3.2 19.3 0.00 0.00 0.00 39 1012.7
20260508173005 20 190 1.6 19.3 0.00 0.00 0.00 42 1012.8
20260508172505 20 181 4.8 24.1 0.00 0.00 0.00 40 1013.0
20260508172005 20 187 4.8 24.1 0.00 0.00 0.00 42 1013.1
20260508171505 20 200 1.6 17.7 0.00 0.00 0.00 40 1013.2
20260508171005 20 185 1.6 9.7 0.00 0.00 0.00 43 1013.3
20260508170505 20 182 1.6 11.3 0.00 0.00 0.00 44 1013.3
20260508170005 20 0 0.0 11.3 0.00 0.00 0.00 40 1013.5
20260508165505 20 0 0.0 9.7 0.00 0.00 0.00 42 1013.4
20260508165005 20 0 0.0 0.0 0.00 0.00 0.00 43 1013.6
20260508164505 20 0 0.0 1.6 0.00 0.00 0.00 42 1013.7
20260508164005 20 186 1.6 11.3 0.00 0.00 0.00 43 1013.9
20260508163005 20 0 0.0 11.3 0.00 0.00 0.00 45 1014.2
20260508162505 19 189 1.6 22.5 0.00 0.00 0.00 42 1014.1
20260508162004 20 189 1.6 22.5 0.00 0.00 0.00 44 1014.2
20260508161506 20 0 0.0 19.3 0.00 0.00 0.00 43 1014.3
20260508161005 20 0 0.0 12.9 0.00 0.00 0.00 43 1014.4
20260508160505 20 0 0.0 11.3 0.00 0.00 0.00 45 1014.4
20260508160006 19 0 0.0 11.3 0.00 0.00 0.00 48 1014.5
20260508155505 19 0 0.0 6.4 0.00 0.00 0.00 49 1014.4
20260508155005 18 0 0.0 12.9 0.00 0.00 0.00 46 1014.5
20260508154506 18 0 0.0 12.9 0.00 0.00 0.00 46 1014.6
20260508154004 18 0 0.0 3.2 0.00 0.00 0.00 49 1014.7
20260508153505 18 0 0.0 19.3 0.00 0.00 0.00 48 1014.8
20260508153005 18 0 0.0 19.3 0.00 0.00 0.00 48 1014.9
20260508151505 18 196 1.6 14.5 0.00 0.00 0.00 49 1015.1
20260508151005 17 190 1.6 9.7 0.00 0.00 0.00 49 1015.2
20260508150505 17 193 1.6 12.9 0.00 0.00 0.00 48 1015.3
20260508150005 17 198 1.6 16.1 0.00 0.00 0.00 50 1015.4
20260508145505 17 200 1.6 16.1 0.00 0.00 0.00 49 1015.3
20260508145005 17 191 1.6 9.7 0.00 0.00 0.00 51 1015.2
20260508144505 17 0 0.0 9.7 0.00 0.00 0.00 51 1015.2
20260508144005 16 0 0.0 8.0 0.00 0.00 0.00 52 1015.4
20260508143005 16 211 1.6 8.0 0.00 0.00 0.00 54 1015.4
20260508142005 15 166 3.2 14.5 0.00 0.00 0.00 56 1015.5
20260508141505 15 167 1.6 14.5 0.00 0.00 0.00 58 1015.5
20260508141004 15 0 0.0 9.7 0.00 0.00 0.00 60 1015.5
20260508140505 14 0 0.0 0.0 0.00 0.00 0.00 62 1015.5
20260508140005 14 0 0.0 0.0 0.00 0.00 0.00 64 1015.5
20260508135505 13 0 0.0 3.2 0.00 0.00 0.00 65 1015.6
20260508135005 13 0 0.0 8.0 0.00 0.00 0.00 66 1015.7
20260508134505 12 0 0.0 8.0 0.00 0.00 0.00 68 1015.7
20260508134005 12 0 0.0 1.6 0.00 0.00 0.00 70 1015.7
20260508133505 12 0 0.0 1.6 0.00 0.00 0.00 74 1015.7
20260508133005 11 0 0.0 0.0 0.00 0.00 0.00 76 1015.8
20260508132504 11 0 0.0 1.6 0.00 0.00 0.00 78 1015.8
20260508132005 10 0 0.0 1.6 0.00 0.00 0.00 80 1015.8
20260508131505 9 0 0.0 1.6 0.00 0.00 0.00 82 1015.9
20260508131004 8 0 0.0 1.6 0.00 0.00 0.00 78 1015.8
20260508130005 8 0 0.0 0.0 0.00 0.00 0.00 34 1015.8
20260508125505 7 0 0.0 0.0 0.00 0.00 0.00 17 1015.7
20260508125005 7 0 0.0 1.6 0.00 0.00 0.00 17 1015.7
20260508124505 6 0 0.0 1.6 0.00 0.00 0.00 17 1015.8
20260508123505 6 0 0.0 0.0 0.00 0.00 0.00 18 1015.7
20260508123005 6 0 0.0 0.0 0.00 0.00 0.00 18 1015.7
20260508122504 5 0 0.0 0.0 0.00 0.00 0.00 19 1015.7
20260508122005 5 0 0.0 0.0 0.00 0.00 0.00 19 1015.6
20260508121505 5 0 0.0 0.0 0.00 0.00 0.00 20 1015.6
20260508121005 5 0 0.0 0.0 0.00 0.00 0.00 21 1015.6
20260508120005 4 0 0.0 0.0 0.00 0.00 0.00 23 1015.6
20260508115005 3 0 0.0 0.0 0.00 0.00 0.00 26 1015.5
20260508114505 3 0 0.0 0.0 0.00 0.00 0.00 28 1015.4
20260508114004 3 0 0.0 0.0 0.00 0.00 0.00 29 1015.4
20260508113504 3 0 0.0 0.0 0.00 0.00 0.00 29 1015.3
20260508112504 3 0 0.0 0.0 0.00 0.00 0.00 32 1015.3
20260508112004 3 0 0.0 0.0 0.00 0.00 0.00 33 1015.2
20260508111505 3 0 0.0 0.0 0.00 0.00 0.00 33 1015.1
20260508111004 3 0 0.0 0.0 0.00 0.00 0.00 33 1015.2
20260508110505 3 0 0.0 0.0 0.00 0.00 0.00 34 1015.1
20260508105505 3 0 0.0 0.0 0.00 0.00 0.00 34 1015.0
20260508105004 3 0 0.0 0.0 0.00 0.00 0.00 34 1015.0
20260508104505 3 0 0.0 0.0 0.00 0.00 0.00 34 1015.0
20260508104004 3 0 0.0 0.0 0.00 0.00 0.00 34 1014.9
20260508103504 3 0 0.0 0.0 0.00 0.00 0.00 33 1015.0
20260508103004 3 0 0.0 0.0 0.00 0.00 0.00 33 1015.0
20260508102504 3 0 0.0 0.0 0.00 0.00 0.00 32 1015.0
20260508102005 3 0 0.0 0.0 0.00 0.00 0.00 33 1015.0
20260508101505 3 0 0.0 0.0 0.00 0.00 0.00 33 1015.0
20260508101004 3 0 0.0 0.0 0.00 0.00 0.00 34 1015.0
20260508100005 3 0 0.0 0.0 0.00 0.00 0.00 36 1015.0
20260508095504 3 0 0.0 0.0 0.00 0.00 0.00 38 1015.0
20260508095004 3 0 0.0 0.0 0.00 0.00 0.00 38 1015.0
20260508094505 3 0 0.0 0.0 0.00 0.00 0.00 40 1015.0
20260508094004 3 0 0.0 0.0 0.00 0.00 0.00 41 1015.0
20260508093504 3 0 0.0 0.0 0.00 0.00 0.00 42 1015.0
20260508093004 3 0 0.0 0.0 0.00 0.00 0.00 42 1014.9
20260508091504 3 0 0.0 0.0 0.00 0.00 0.00 43 1014.8
20260508091004 3 0 0.0 0.0 0.00 0.00 0.00 43 1014.8
20260508090005 3 0 0.0 0.0 0.00 0.00 0.00 44 1014.9
20260508085504 3 0 0.0 0.0 0.00 0.00 0.00 44 1014.9
20260508085004 3 0 0.0 0.0 0.00 0.00 0.00 44 1014.8
20260508084505 3 0 0.0 0.0 0.00 0.00 0.00 44 1014.8
20260508084005 3 0 0.0 0.0 0.00 0.00 0.00 44 1014.7
20260508083504 3 0 0.0 0.0 0.00 0.00 0.00 45 1014.7
20260508083004 3 0 0.0 0.0 0.00 0.00 0.00 45 1014.8
20260508082504 3 0 0.0 0.0 0.00 0.00 0.00 46 1014.8
20260508082004 3 0 0.0 0.0 0.00 0.00 0.00 46 1014.7
20260508081504 3 0 0.0 0.0 0.00 0.00 0.00 47 1014.7
20260508081004 3 0 0.0 0.0 0.00 0.00 0.00 47 1014.8
20260508080504 3 0 0.0 0.0 0.00 0.00 0.00 48 1014.7
20260508080004 3 0 0.0 0.0 0.00 0.00 0.00 48 1014.7
20260508075504 3 0 0.0 0.0 0.00 0.00 0.00 48 1014.7
20260508075004 3 0 0.0 0.0 0.00 0.00 0.00 49 1014.7
20260508074504 3 0 0.0 0.0 0.00 0.00 0.00 50 1014.7
20260508074004 3 0 0.0 0.0 0.00 0.00 0.00 50 1014.7
20260508072503 3 0 0.0 0.0 0.00 0.00 0.00 52 1014.5
20260508072004 3 0 0.0 0.0 0.00 0.00 0.00 52 1014.6
20260508071504 3 0 0.0 0.0 0.00 0.00 0.00 52 1014.7
20260508071004 3 0 0.0 0.0 0.00 0.00 0.00 52 1014.8
20260508070504 3 0 0.0 0.0 0.00 0.00 0.00 52 1014.9
20260508070005 3 0 0.0 0.0 0.00 0.00 0.00 53 1015.0
20260508065503 3 0 0.0 0.0 0.00 0.00 0.00 53 1015.0
20260508064504 3 0 0.0 0.0 0.00 0.00 0.00 52 1015.2
20260508064004 3 0 0.0 0.0 0.00 0.00 0.00 52 1015.2
20260508063504 3 0 0.0 0.0 0.00 0.00 0.00 53 1015.2
20260508063004 4 0 0.0 0.0 0.00 0.00 0.00 53 1015.3
20260508062504 4 0 0.0 0.0 0.00 0.00 0.00 53 1015.3
20260508061504 4 0 0.0 0.0 0.00 0.00 0.00 54 1015.4
20260508060504 4 0 0.0 0.0 0.00 0.00 0.00 56 1015.5
20260508060005 4 0 0.0 0.0 0.00 0.00 0.00 57 1015.4
20260508055504 4 0 0.0 0.0 0.00 0.00 0.00 57 1015.4
20260508054004 4 0 0.0 0.0 0.00 0.00 0.00 59 1015.5
20260508053504 4 0 0.0 0.0 0.00 0.00 0.00 59 1015.4
20260508053004 4 0 0.0 0.0 0.00 0.00 0.00 59 1015.3
20260508052004 4 0 0.0 0.0 0.00 0.00 0.00 60 1015.4
20260508051504 4 0 0.0 0.0 0.00 0.00 0.00 62 1015.4
20260508051004 4 0 0.0 0.0 0.00 0.00 0.00 63 1015.3
20260508050503 4 0 0.0 0.0 0.00 0.00 0.00 63 1015.3
20260508045003 5 0 0.0 0.0 0.00 0.00 0.00 65 1015.4
20260508044504 5 0 0.0 0.0 0.00 0.00 0.00 65 1015.4
20260508043504 5 0 0.0 0.0 0.00 0.00 0.00 68 1015.4
20260508043004 5 0 0.0 0.0 0.00 0.00 0.00 69 1015.4
20260508042504 5 0 0.0 0.0 0.00 0.00 0.00 70 1015.4
20260508042004 5 0 0.0 0.0 0.00 0.00 0.00 70 1015.4
20260508041504 5 0 0.0 0.0 0.00 0.00 0.00 71 1015.4
20260508041004 5 0 0.0 0.0 0.00 0.00 0.00 72 1015.3
20260508040504 5 0 0.0 0.0 0.00 0.00 0.00 72 1015.3
20260508040005 5 0 0.0 0.0 0.00 0.00 0.00 72 1015.4
20260508035004 5 0 0.0 0.0 0.00 0.00 0.00 72 1015.4
20260508034504 5 0 0.0 0.0 0.00 0.00 0.00 73 1015.3
20260508034004 5 0 0.0 0.0 0.00 0.00 0.00 74 1015.4
20260508033504 5 0 0.0 0.0 0.00 0.00 0.00 74 1015.4
20260508033004 5 0 0.0 0.0 0.00 0.00 0.00 75 1015.4
20260508032504 5 0 0.0 0.0 0.00 0.00 0.00 75 1015.3
20260508032004 6 0 0.0 0.0 0.00 0.00 0.00 75 1015.3
20260508031504 6 0 0.0 0.0 0.00 0.00 0.00 76 1015.3
20260508031003 6 0 0.0 0.0 0.00 0.00 0.00 77 1015.3
20260508030004 6 0 0.0 0.0 0.00 0.00 0.00 78 1015.3
20260508025004 6 0 0.0 0.0 0.00 0.00 0.00 79 1015.3
20260508024504 6 0 0.0 0.0 0.00 0.00 0.00 79 1015.2
20260508024004 6 0 0.0 0.0 0.00 0.00 0.00 79 1015.3
20260508023506 6 0 0.0 0.0 0.00 0.00 0.00 80 1015.2
20260508023007 6 0 0.0 0.0 0.00 0.00 0.00 80 1015.1
20260508022506 7 0 0.0 0.0 0.00 0.00 0.00 80 1015.0
20260508022006 7 0 0.0 0.0 0.00 0.00 0.00 81 1015.1
20260508021506 7 0 0.0 0.0 0.00 0.00 0.00 80 1015.0
20260508021006 7 0 0.0 0.0 0.00 0.00 0.00 81 1015.1
20260508020506 7 0 0.0 0.0 0.00 0.00 0.00 80 1015.0
20260508020007 7 0 0.0 0.0 0.00 0.00 0.00 80 1015.1
20260508015006 8 0 0.0 0.0 0.00 0.00 0.00 80 1015.0
20260508014507 8 0 0.0 0.0 0.00 0.00 0.00 79 1015.0
20260508014006 8 0 0.0 0.0 0.00 0.00 0.00 78 1014.9
20260508013506 8 0 0.0 0.0 0.00 0.00 0.00 78 1014.9
20260508013006 9 0 0.0 0.0 0.00 0.00 0.00 76 1014.9
20260508012506 9 0 0.0 0.0 0.00 0.00 0.00 75 1014.8
20260508011507 10 0 0.0 0.0 0.00 0.00 0.00 72 1014.7
20260508011007 10 0 0.0 0.0 0.00 0.00 0.00 72 1014.7
20260508010006 11 0 0.0 0.0 0.00 0.00 0.00 71 1014.7
20260508005506 11 0 0.0 0.0 0.00 0.00 0.00 65 1014.7
20260508005006 11 0 0.0 0.0 0.00 0.00 0.00 65 1014.6
20260508004506 12 0 0.0 0.0 0.00 0.00 0.00 67 1014.6
20260508004006 12 0 0.0 0.0 0.00 0.00 0.00 68 1014.6
20260508003506 12 0 0.0 0.0 0.00 0.00 0.00 66 1014.6
20260508003007 13 0 0.0 0.0 0.00 0.00 0.00 64 1014.5